Time,TemperatureF,DewpointF,PressureIn,WindDirection,WindDirectionDegrees,WindSpeedMPH,WindSpeedGustMPH,Humidity,HourlyPrecipIn,Conditions,Clouds,dailyrainin,SoftwareType,DateUTC
2013-09-20 00:02:00,62.2,61.2,30.08,NE,45,0.0,0.0,96,0.00,,,0.57,meteohub,2013-09-20 04:02:00,
2013-09-20 00:07:00,62.2,61.2,30.08,NE,45,0.0,0.0,96,0.00,,,0.00,meteohub,2013-09-20 04:07:00,
2013-09-20 00:08:00,62.2,61.2,30.08,NE,45,0.0,0.0,96,0.00,,,0.00,meteohub,2013-09-20 04:08:00,
2013-09-20 00:11:00,62.2,61.2,30.08,NE,45,0.0,0.0,96,0.00,,,0.00,meteohub,2013-09-20 04:11:00,
2013-09-20 00:17:00,62.2,61.2,30.08,NE,45,0.0,0.0,96,0.00,,,0.00,meteohub,2013-09-20 04:17:00,
2013-09-20 00:22:00,62.2,61.2,30.08,NE,45,0.0,0.0,96,0.00,,,0.00,meteohub,2013-09-20 04:22:00,
2013-09-20 00:27:00,62.2,61.2,30.08,NE,45,0.0,0.0,96,0.00,,,0.00,meteohub,2013-09-20 04:27:00,
2013-09-20 00:32:00,62.4,61.5,30.08,NE,45,0.0,0.0,97,0.00,,,0.00,meteohub,2013-09-20 04:32:00,
2013-09-20 00:37:00,62.4,61.5,30.08,NE,45,0.0,0.0,97,0.00,,,0.00,meteohub,2013-09-20 04:37:00,
2013-09-20 00:42:00,62.4,61.5,30.09,NE,45,0.0,0.0,97,0.00,,,0.00,meteohub,2013-09-20 04:42:00,
2013-09-20 00:47:00,62.6,61.7,30.08,NE,45,0.0,0.0,97,0.00,,,0.00,meteohub,2013-09-20 04:47:00,
2013-09-20 00:52:00,62.6,61.7,30.09,NE,45,0.0,0.0,97,0.00,,,0.00,meteohub,2013-09-20 04:52:00,
2013-09-20 00:57:00,62.6,61.7,30.09,NE,45,0.0,0.0,97,0.00,,,0.00,meteohub,2013-09-20 04:57:00,
2013-09-20 01:02:00,62.8,61.9,30.09,NE,45,0.0,0.0,97,0.00,,,0.00,meteohub,2013-09-20 05:02:00,
2013-09-20 01:07:00,62.8,61.9,30.09,NE,45,0.0,0.0,97,0.00,,,0.00,meteohub,2013-09-20 05:07:00,
2013-09-20 01:12:00,62.8,61.9,30.09,NE,45,0.0,0.0,97,0.00,,,0.00,meteohub,2013-09-20 05:12:00,
2013-09-20 01:17:00,62.8,61.9,30.09,NE,45,0.0,0.0,97,0.00,,,0.00,meteohub,2013-09-20 05:17:00,
2013-09-20 01:22:00,63.0,62.1,30.09,NE,45,0.0,0.0,97,0.00,,,0.00,meteohub,2013-09-20 05:22:00,
2013-09-20 01:27:00,63.0,62.1,30.09,NE,45,0.0,0.0,97,0.00,,,0.00,meteohub,2013-09-20 05:27:00,
2013-09-20 01:32:00,63.0,62.1,30.09,NE,45,0.0,0.0,97,0.00,,,0.00,meteohub,2013-09-20 05:32:00,
2013-09-20 01:37:00,63.0,62.1,30.09,NE,45,0.0,0.0,97,0.00,,,0.00,meteohub,2013-09-20 05:37:00,
2013-09-20 01:42:00,63.1,62.2,30.09,NE,45,0.0,0.0,97,0.00,,,0.00,meteohub,2013-09-20 05:42:00,
2013-09-20 01:47:00,63.1,62.2,30.10,NE,45,0.0,0.0,97,0.00,,,0.00,meteohub,2013-09-20 05:47:00,
2013-09-20 01:52:00,63.3,62.8,30.10,NE,45,0.0,0.0,98,0.00,,,0.00,meteohub,2013-09-20 05:52:00,
2013-09-20 01:57:00,63.3,62.8,30.09,NE,45,0.0,0.0,98,0.00,,,0.00,meteohub,2013-09-20 05:57:00,
2013-09-20 02:02:00,63.3,62.8,30.09,NE,45,0.0,0.0,98,0.00,,,0.00,meteohub,2013-09-20 06:02:00,
2013-09-20 02:07:00,63.3,62.4,30.09,NE,45,0.0,0.0,97,0.00,,,0.00,meteohub,2013-09-20 06:07:00,
2013-09-20 02:12:00,63.5,63.0,30.09,NE,45,0.0,0.0,98,0.00,,,0.00,meteohub,2013-09-20 06:12:00,
2013-09-20 02:17:00,63.5,63.0,30.09,NE,45,0.0,0.0,98,0.00,,,0.00,meteohub,2013-09-20 06:17:00,
2013-09-20 02:22:00,63.5,63.0,30.09,NE,45,0.0,0.0,98,0.00,,,0.00,meteohub,2013-09-20 06:22:00,
2013-09-20 02:27:00,63.5,63.0,30.09,NE,45,0.0,0.0,98,0.00,,,0.00,meteohub,2013-09-20 06:27:00,
2013-09-20 02:32:00,63.5,63.0,30.09,NE,45,0.0,0.0,98,0.00,,,0.00,meteohub,2013-09-20 06:32:00,
2013-09-20 02:37:00,63.5,63.0,30.08,NE,45,0.0,0.0,98,0.00,,,0.00,meteohub,2013-09-20 06:37:00,
2013-09-20 02:42:00,63.5,63.0,30.09,NE,45,0.0,0.0,98,0.00,,,0.00,meteohub,2013-09-20 06:42:00,
2013-09-20 03:18:00,63.1,62.6,30.08,NE,45,0.0,-999.0,98,0.00,,,0.00,meteohub,2013-09-20 07:18:00,
2013-09-20 03:24:00,63.1,62.6,30.08,NE,45,0.0,0.0,98,0.01,,,0.01,meteohub,2013-09-20 07:24:00,
2013-09-20 04:29:00,63.0,62.6,30.07,NE,45,0.0,-999.0,99,-99.99,,,0.01,meteohub,2013-09-20 08:29:00,
2013-09-20 04:35:00,62.8,62.4,30.06,NE,45,0.0,0.0,99,0.00,,,0.01,meteohub,2013-09-20 08:35:00,
2013-09-20 04:41:00,62.8,62.4,30.07,NE,45,0.0,0.0,99,0.00,,,0.01,meteohub,2013-09-20 08:41:00,
2013-09-20 04:47:00,62.8,62.4,30.06,NE,45,0.0,0.0,99,0.00,,,0.01,meteohub,2013-09-20 08:47:00,
2013-09-20 04:52:00,62.8,62.4,30.07,NE,45,0.0,0.0,99,0.00,,,0.01,meteohub,2013-09-20 08:52:00,
2013-09-20 04:57:00,63.0,62.6,30.07,NE,45,0.0,0.0,99,0.00,,,0.01,meteohub,2013-09-20 08:57:00,
2013-09-20 05:02:00,63.0,62.6,30.06,NE,45,0.0,0.0,99,0.00,,,0.01,meteohub,2013-09-20 09:02:00,
2013-09-20 05:07:00,63.0,62.6,30.07,NE,45,0.0,0.0,99,0.00,,,0.01,meteohub,2013-09-20 09:07:00,
2013-09-20 05:12:00,62.8,62.4,30.07,NE,45,0.0,0.0,99,0.00,,,0.01,meteohub,2013-09-20 09:12:00,
2013-09-20 05:17:00,62.8,62.4,30.07,NE,45,0.0,0.0,99,0.00,,,0.01,meteohub,2013-09-20 09:17:00,
2013-09-20 05:22:00,62.8,62.4,30.07,NE,45,0.0,0.0,99,0.00,,,0.01,meteohub,2013-09-20 09:22:00,
2013-09-20 05:27:00,62.8,62.4,30.07,NE,45,0.0,0.0,99,0.00,,,0.01,meteohub,2013-09-20 09:27:00,
2013-09-20 05:32:00,62.8,62.4,30.07,NE,45,0.0,0.0,99,0.00,,,0.01,meteohub,2013-09-20 09:32:00,
2013-09-20 05:37:00,63.0,62.6,30.07,NE,45,0.0,0.0,99,0.00,,,0.01,meteohub,2013-09-20 09:37:00,
2013-09-20 05:42:00,62.8,62.4,30.07,NE,45,0.0,0.0,99,0.00,,,0.01,meteohub,2013-09-20 09:42:00,
2013-09-20 05:47:00,63.0,62.6,30.08,NE,45,0.0,0.0,99,0.00,,,0.01,meteohub,2013-09-20 09:47:00,
2013-09-20 05:52:00,63.0,62.6,30.08,NE,45,2.0,0.0,99,0.00,,,0.01,meteohub,2013-09-20 09:52:00,
2013-09-20 05:57:00,63.0,62.6,30.08,NE,45,1.0,2.0,99,0.00,,,0.01,meteohub,2013-09-20 09:57:00,
2013-09-20 06:02:00,63.0,62.6,30.08,NE,45,0.0,2.0,99,0.00,,,0.01,meteohub,2013-09-20 10:02:00,
2013-09-20 06:07:00,63.0,62.6,30.08,NE,45,0.0,2.0,99,0.01,,,0.02,meteohub,2013-09-20 10:07:00,
2013-09-20 06:12:00,62.8,62.4,30.08,NE,45,0.0,1.0,99,0.02,,,0.04,meteohub,2013-09-20 10:12:00,
2013-09-20 06:17:00,62.8,62.4,30.08,NE,45,0.0,0.0,99,0.02,,,0.04,meteohub,2013-09-20 10:17:00,
2013-09-20 06:22:00,62.8,62.4,30.08,NE,45,0.0,0.0,99,0.02,,,0.04,meteohub,2013-09-20 10:22:00,
2013-09-20 06:27:00,62.8,62.4,30.08,NE,45,1.0,0.0,99,0.05,,,0.06,meteohub,2013-09-20 10:27:00,
2013-09-20 06:32:00,62.8,62.4,30.08,NE,45,0.0,1.0,99,0.05,,,0.06,meteohub,2013-09-20 10:32:00,
2013-09-20 06:37:00,62.8,62.4,30.08,NE,45,0.0,1.0,99,0.06,,,0.07,meteohub,2013-09-20 10:37:00,
2013-09-20 06:42:00,62.8,62.4,30.08,NE,45,0.0,1.0,99,0.06,,,0.07,meteohub,2013-09-20 10:42:00,
2013-09-20 06:47:00,62.8,62.4,30.08,NE,45,0.0,0.0,99,0.06,,,0.07,meteohub,2013-09-20 10:47:00,
2013-09-20 06:52:00,62.8,62.4,30.08,NE,45,0.0,0.0,99,0.06,,,0.07,meteohub,2013-09-20 10:52:00,
2013-09-20 06:57:00,62.8,62.4,30.08,NE,45,0.0,0.0,99,0.06,,,0.07,meteohub,2013-09-20 10:57:00,
2013-09-20 07:02:00,62.8,62.4,30.08,NE,45,0.0,1.0,99,0.05,,,0.07,meteohub,2013-09-20 11:02:00,
2013-09-20 07:07:00,62.8,62.4,30.09,NE,45,0.0,1.0,99,0.05,,,0.07,meteohub,2013-09-20 11:07:00,
2013-09-20 07:12:00,62.8,62.4,30.08,NE,45,0.0,1.0,99,0.05,,,0.08,meteohub,2013-09-20 11:12:00,
2013-09-20 07:17:00,62.8,62.4,30.08,NE,45,0.0,1.0,99,0.05,,,0.08,meteohub,2013-09-20 11:17:00,
2013-09-20 07:22:00,62.8,62.4,30.08,NE,45,0.0,1.0,99,0.05,,,0.08,meteohub,2013-09-20 11:22:00,
2013-09-20 07:27:00,62.6,62.2,30.08,NE,45,0.0,0.0,99,0.02,,,0.08,meteohub,2013-09-20 11:27:00,
2013-09-20 07:32:00,62.6,62.2,30.08,NE,45,0.0,1.0,99,0.02,,,0.09,meteohub,2013-09-20 11:32:00,
2013-09-20 07:37:00,62.6,62.2,30.09,NE,45,0.0,1.0,99,0.02,,,0.09,meteohub,2013-09-20 11:37:00,
2013-09-20 07:42:00,62.6,62.2,30.09,NE,45,0.0,1.0,99,0.02,,,0.09,meteohub,2013-09-20 11:42:00,
2013-09-20 07:47:00,62.6,62.2,30.08,NE,45,1.0,2.0,99,0.02,,,0.09,meteohub,2013-09-20 11:47:00,
2013-09-20 07:52:00,62.4,62.1,30.08,NE,45,1.0,2.0,99,0.02,,,0.09,meteohub,2013-09-20 11:52:00,
2013-09-20 07:57:00,62.6,62.2,30.08,NE,45,0.0,1.0,99,0.02,,,0.09,meteohub,2013-09-20 11:57:00,
2013-09-20 08:02:00,62.4,62.1,30.08,NE,45,0.0,1.0,99,0.04,,,0.11,meteohub,2013-09-20 12:02:00,
2013-09-20 08:07:00,62.4,62.1,30.08,NE,45,0.0,1.0,99,0.04,,,0.11,meteohub,2013-09-20 12:07:00,
2013-09-20 08:12:00,62.4,62.1,30.08,NE,45,2.0,0.0,99,0.02,,,0.11,meteohub,2013-09-20 12:12:00,
2013-09-20 08:17:00,62.6,62.2,30.08,NE,45,1.0,2.0,99,0.02,,,0.11,meteohub,2013-09-20 12:17:00,
2013-09-20 08:22:00,62.6,62.2,30.09,NE,45,0.0,2.0,99,0.02,,,0.11,meteohub,2013-09-20 12:22:00,
2013-09-20 08:27:00,62.6,62.2,30.08,NE,45,0.0,2.0,99,0.01,,,0.11,meteohub,2013-09-20 12:27:00,
2013-09-20 08:32:00,62.6,62.2,30.08,NE,45,1.0,2.0,99,0.01,,,0.11,meteohub,2013-09-20 12:32:00,
2013-09-20 08:37:00,62.6,62.2,30.08,NE,45,1.0,2.0,99,0.01,,,0.11,meteohub,2013-09-20 12:37:00,
2013-09-20 08:42:00,62.6,62.2,30.08,NE,45,1.0,2.0,99,0.01,,,0.11,meteohub,2013-09-20 12:42:00,
2013-09-20 08:47:00,62.6,62.2,30.09,NE,45,0.0,2.0,99,0.01,,,0.11,meteohub,2013-09-20 12:47:00,
2013-09-20 08:52:00,62.8,62.4,30.09,NE,45,0.0,1.0,99,0.01,,,0.11,meteohub,2013-09-20 12:52:00,
2013-09-20 08:57:00,62.8,62.4,30.09,East,90,2.0,2.0,99,0.00,,,0.11,meteohub,2013-09-20 12:57:00,
2013-09-20 09:02:00,63.0,62.6,30.09,East,90,0.0,2.0,99,0.00,,,0.11,meteohub,2013-09-20 13:02:00,
2013-09-20 09:07:00,63.0,62.6,30.09,East,90,1.0,2.0,99,0.00,,,0.11,meteohub,2013-09-20 13:07:00,
2013-09-20 09:12:00,63.1,62.8,30.08,East,90,1.0,2.0,99,0.00,,,0.11,meteohub,2013-09-20 13:12:00,
2013-09-20 09:17:00,63.3,63.0,30.09,East,90,2.0,2.0,99,0.00,,,0.11,meteohub,2013-09-20 13:17:00,
2013-09-20 09:22:00,63.5,63.1,30.08,East,90,1.0,2.0,99,0.00,,,0.11,meteohub,2013-09-20 13:22:00,
2013-09-20 09:27:00,63.7,63.3,30.08,East,90,1.0,2.0,99,0.00,,,0.11,meteohub,2013-09-20 13:27:00,
2013-09-20 09:32:00,63.9,63.5,30.08,East,90,0.0,2.0,99,0.00,,,0.11,meteohub,2013-09-20 13:32:00,
2013-09-20 09:37:00,64.2,63.9,30.08,NE,45,2.0,2.0,99,0.00,,,0.11,meteohub,2013-09-20 13:37:00,
2013-09-20 09:42:00,64.2,63.9,30.08,East,90,1.0,2.0,99,0.00,,,0.11,meteohub,2013-09-20 13:42:00,
2013-09-20 09:47:00,64.4,64.0,30.08,East,90,2.0,2.0,99,0.00,,,0.11,meteohub,2013-09-20 13:47:00,
2013-09-20 09:52:00,64.6,64.2,30.08,East,90,1.0,2.0,99,0.00,,,0.11,meteohub,2013-09-20 13:52:00,
2013-09-20 09:57:00,64.8,64.4,30.08,East,90,2.0,2.0,99,0.00,,,0.11,meteohub,2013-09-20 13:57:00,
2013-09-20 10:02:00,64.8,64.4,30.08,East,90,2.0,2.0,99,0.00,,,0.11,meteohub,2013-09-20 14:02:00,
2013-09-20 10:07:00,64.8,64.4,30.08,SE,135,3.0,3.0,99,0.00,,,0.11,meteohub,2013-09-20 14:07:00,
2013-09-20 10:12:00,64.8,64.4,30.08,SE,135,1.0,3.0,99,0.00,,,0.11,meteohub,2013-09-20 14:12:00,
2013-09-20 10:17:00,64.8,64.4,30.08,East,90,1.0,3.0,99,0.00,,,0.11,meteohub,2013-09-20 14:17:00,
2013-09-20 10:22:00,64.9,64.6,30.08,East,90,1.0,3.0,99,0.00,,,0.11,meteohub,2013-09-20 14:22:00,
2013-09-20 10:27:00,64.9,64.6,30.07,East,90,2.0,2.0,99,0.00,,,0.11,meteohub,2013-09-20 14:27:00,
2013-09-20 10:32:00,65.3,64.9,30.07,East,90,1.0,2.0,99,0.00,,,0.11,meteohub,2013-09-20 14:32:00,
2013-09-20 10:37:00,65.8,65.5,30.08,East,90,2.0,2.0,99,0.00,,,0.11,meteohub,2013-09-20 14:37:00,
2013-09-20 10:42:00,66.4,66.0,30.08,NE,45,0.0,2.0,99,0.00,,,0.11,meteohub,2013-09-20 14:42:00,
2013-09-20 10:47:00,66.7,66.4,30.07,NE,45,2.0,2.0,99,0.00,,,0.11,meteohub,2013-09-20 14:47:00,
2013-09-20 10:52:00,66.7,66.4,30.07,East,90,2.0,2.0,99,0.00,,,0.11,meteohub,2013-09-20 14:52:00,
2013-09-20 10:57:00,67.1,66.7,30.07,NE,45,2.0,3.0,99,0.00,,,0.11,meteohub,2013-09-20 14:57:00,
2013-09-20 11:02:00,67.5,67.1,30.07,NE,45,2.0,3.0,99,0.00,,,0.11,meteohub,2013-09-20 15:02:00,
2013-09-20 11:07:00,67.6,67.3,30.07,NE,45,3.0,3.0,99,0.00,,,0.11,meteohub,2013-09-20 15:07:00,
2013-09-20 11:12:00,67.6,67.3,30.07,East,90,1.0,3.0,99,0.00,,,0.11,meteohub,2013-09-20 15:12:00,
2013-09-20 11:17:00,67.6,67.3,30.07,East,90,2.0,3.0,99,0.00,,,0.11,meteohub,2013-09-20 15:17:00,
2013-09-20 11:22:00,68.0,67.6,30.07,NE,45,2.0,3.0,99,0.00,,,0.11,meteohub,2013-09-20 15:22:00,
2013-09-20 11:27:00,68.5,68.2,30.07,NE,45,2.0,3.0,99,0.00,,,0.11,meteohub,2013-09-20 15:27:00,
2013-09-20 11:32:00,68.7,68.2,30.07,NE,45,2.0,3.0,98,0.00,,,0.11,meteohub,2013-09-20 15:32:00,
2013-09-20 11:37:00,68.9,68.4,30.07,NE,45,1.0,4.0,98,0.00,,,0.11,meteohub,2013-09-20 15:37:00,
2013-09-20 11:42:00,68.7,68.2,30.07,SE,135,2.0,4.0,98,0.00,,,0.11,meteohub,2013-09-20 15:42:00,
2013-09-20 11:47:00,68.7,67.8,30.06,East,90,1.0,2.0,97,0.00,,,0.11,meteohub,2013-09-20 15:47:00,
2013-09-20 11:52:00,68.7,67.8,30.06,SE,135,2.0,2.0,97,0.00,,,0.11,meteohub,2013-09-20 15:52:00,
2013-09-20 11:57:00,68.9,68.0,30.06,SE,135,0.0,2.0,97,0.00,,,0.11,meteohub,2013-09-20 15:57:00,
2013-09-20 12:02:00,69.1,68.2,30.06,East,90,2.0,2.0,97,0.00,,,0.11,meteohub,2013-09-20 16:02:00,
2013-09-20 12:07:00,69.1,67.8,30.06,SE,135,2.0,2.0,96,0.00,,,0.11,meteohub,2013-09-20 16:07:00,
2013-09-20 12:12:00,69.1,67.8,30.06,SE,135,2.0,3.0,96,0.00,,,0.11,meteohub,2013-09-20 16:12:00,
2013-09-20 12:17:00,74.8,73.6,30.06,SE,135,2.0,3.0,96,0.00,,,0.11,meteohub,2013-09-20 16:17:00,
2013-09-20 12:22:00,74.8,73.6,30.07,SE,135,2.0,3.0,96,0.00,,,0.11,meteohub,2013-09-20 16:22:00,
2013-09-20 12:27:00,68.9,67.6,30.07,SE,135,0.0,2.0,96,0.00,,,0.11,meteohub,2013-09-20 16:27:00,
2013-09-20 12:32:00,68.9,67.6,30.07,SE,135,0.0,2.0,96,0.00,,,0.11,meteohub,2013-09-20 16:32:00,
2013-09-20 12:37:00,69.1,67.8,30.07,SE,135,2.0,2.0,96,0.00,,,0.11,meteohub,2013-09-20 16:37:00,
2013-09-20 12:42:00,69.3,68.0,30.06,East,90,2.0,2.0,96,0.00,,,0.11,meteohub,2013-09-20 16:42:00,
2013-09-20 12:47:00,69.3,68.0,30.06,East,90,2.0,2.0,96,0.00,,,0.11,meteohub,2013-09-20 16:47:00,
2013-09-20 12:52:00,69.1,67.6,30.06,SE,135,2.0,2.0,95,0.00,,,0.11,meteohub,2013-09-20 16:52:00,
2013-09-20 12:57:00,69.1,67.6,30.05,SE,135,2.0,2.0,95,0.00,,,0.11,meteohub,2013-09-20 16:57:00,
2013-09-20 13:41:00,69.1,67.8,30.04,NE,45,2.0,-999.0,96,0.00,,,0.11,meteohub,2013-09-20 17:41:00,
2013-09-20 13:47:00,69.1,67.8,30.04,NE,45,2.0,2.0,96,0.00,,,0.11,meteohub,2013-09-20 17:47:00,
2013-09-20 13:52:00,69.1,67.8,30.04,NE,45,2.0,2.0,96,0.00,,,0.11,meteohub,2013-09-20 17:52:00,
2013-09-20 15:08:00,70.7,69.4,30.01,NE,45,2.0,-999.0,96,-99.99,,,0.11,meteohub,2013-09-20 19:08:00,
2013-09-20 15:14:00,70.7,69.4,30.01,NE,45,11.0,-999.0,96,0.00,,,0.11,meteohub,2013-09-20 19:14:00,
2013-09-20 16:03:00,70.5,68.7,30.00,South,180,4.0,-999.0,94,0.00,,,0.11,meteohub,2013-09-20 20:03:00,
2013-09-20 16:09:00,70.5,68.7,30.00,South,180,4.0,-999.0,94,0.00,,,0.11,meteohub,2013-09-20 20:09:00,
2013-09-20 16:15:00,70.5,68.7,29.99,South,180,4.0,4.0,94,0.00,,,0.11,meteohub,2013-09-20 20:15:00,
2013-09-20 16:45:00,70.5,68.4,29.99,East,90,1.0,-999.0,93,0.00,,,0.11,meteohub,2013-09-20 20:45:00,
2013-09-20 16:51:00,70.5,68.4,29.99,East,90,1.0,1.0,93,0.00,,,0.11,meteohub,2013-09-20 20:51:00,
2013-09-20 16:57:00,70.3,68.2,29.99,North,0,3.0,3.0,93,0.00,,,0.11,meteohub,2013-09-20 20:57:00,
2013-09-20 17:02:00,70.3,68.2,29.99,North,0,3.0,3.0,93,0.00,,,0.11,meteohub,2013-09-20 21:02:00,
2013-09-20 17:07:00,70.3,68.2,29.99,North,0,3.0,3.0,93,0.00,,,0.11,meteohub,2013-09-20 21:07:00,
2013-09-20 17:12:00,70.3,68.2,29.99,North,0,3.0,3.0,93,0.00,,,0.11,meteohub,2013-09-20 21:12:00,